Weather History for Gillette, WY

Change the Weather History Date:

Wednesday, May 22, 2013

  Actual Average Record
Temperature  
Mean Temperature 51 °F 55 °F  
Max Temperature 62 °F 68 °F 91 °F (1980)
Min Temperature 40 °F 42 °F 27 °F (1969)
Degree Days  
Heating Degree Days 14 11  
Month to date heating degree days 269 301  
Since 1 July heating degree days 7231 7317  
Cooling Degree Days 0 0  
Month to date cooling degree days 8 0  
Year to date cooling degree days 8 0  
Growing Degree Days 1 (Base 50)    
Moisture  
Dew Point 42 °F    
Average Humidity 75    
Maximum Humidity 93    
Minimum Humidity 57    
Precipitation  
Precipitation 0.00 in 0.09 in 2.00 in (1952)
Month to date precipitation 1.12 1.69  
Year to date precipitation 4.24 4.90  
Sea Level Pressure  
Sea Level Pressure 29.97 in    
Wind  
Wind Speed 11 mph (ENE)    
Max Wind Speed 29 mph    
Max Gust Speed 38 mph    
Visibility 10 miles    
Events      
T = Trace of Precipitation, MM = Missing Value Source: NWS Daily Summary

Daily Weather History Graph

Daily Weather History Graph

Search for Another Location

Airport:

Trip Planner

Search our weather history database for the weather conditions in past years. The results will help you decide how hot, cold, wet, or windy it might be!

Date:

Astronomy

May. 22, 2013 Rise Set
Actual Time 5:27 AM MDT 8:30 PM MDT
Civil Twilight 4:53 AM MDT 9:05 PM MDT
Nautical Twilight 4:09 AM MDT 9:49 PM MDT
Astronomical Twilight 3:16 AM MDT 10:42 PM MDT
Moon 5:50 PM MDT (5/22) 3:40 AM MDT (5/22)
Length of Visible Light 16h 11m
Length of Day
15h 02m
Waxing Gibbous, 92% of the Moon is Illuminated
May 22
Waxing Gibbous
May 24
Full
May 31
Last Quarter
Jun 8
New
Jun 16
First Quarter

Hourly Weather History & Observations

Time (MDT) Temp. Windchill Dew Point Humidity Pressure Visibility Wind Dir Wind Speed Gust Speed Precip Events Conditions
12:53 AM 44.1 °F 42.5 °F 42.1 °F 93% 29.96 in 10.0 mi NNW 3.5 mph - N/A   Overcast
1:53 AM 44.1 °F 42.5 °F 39.9 °F 85% 29.94 in 10.0 mi NNW 3.5 mph - N/A   Overcast
2:31 AM 42.8 °F 39.3 °F 41.0 °F 93% 29.97 in 10.0 mi North 5.8 mph - N/A   Overcast
2:53 AM 43.0 °F 38.8 °F 39.9 °F 89% 29.94 in 10.0 mi North 6.9 mph - N/A   Overcast
3:53 AM 42.1 °F 38.4 °F 39.0 °F 89% 29.94 in 10.0 mi North 5.8 mph - N/A   Overcast
4:53 AM 42.1 °F 38.4 °F 37.9 °F 85% 29.96 in 10.0 mi NE 5.8 mph - N/A   Overcast
5:03 AM 42.8 °F 41.1 °F 37.4 °F 81% 29.97 in 10.0 mi NE 3.5 mph - N/A   Overcast
5:53 AM 41.0 °F 38.0 °F 39.0 °F 93% 29.97 in 10.0 mi NNE 4.6 mph - N/A   Overcast
6:53 AM 41.0 °F - 39.0 °F 93% 29.97 in 8.0 mi Calm Calm - N/A   Overcast
7:49 AM 42.8 °F 39.3 °F 39.2 °F 87% 30.00 in 10.0 mi East 5.8 mph - N/A   Overcast
7:53 AM 43.0 °F 40.3 °F 39.0 °F 86% 29.98 in 9.0 mi East 4.6 mph - N/A   Overcast
8:00 AM 42.8 °F 39.3 °F 39.2 °F 87% 29.99 in 7.0 mi East 5.8 mph - N/A   Overcast
8:08 AM 42.8 °F - 39.2 °F 87% 29.99 in 5.0 mi Calm Calm - N/A   Overcast
8:53 AM 46.0 °F 41.9 °F 39.9 °F 79% 29.99 in 10.0 mi East 8.1 mph - N/A   Overcast
9:53 AM 46.9 °F - 41.0 °F 80% 30.00 in 10.0 mi NE 6.9 mph - N/A   Overcast
10:24 AM 48.2 °F - 42.8 °F 82% 30.01 in 10.0 mi East 9.2 mph - N/A   Overcast
10:53 AM 50.0 °F - 42.1 °F 74% 29.99 in 10.0 mi ENE 8.1 mph - N/A   Overcast
11:53 AM 53.1 °F - 43.0 °F 69% 29.97 in 10.0 mi ENE 10.4 mph - N/A   Overcast
12:53 PM 55.9 °F - 44.1 °F 64% 29.96 in 10.0 mi East 9.2 mph - N/A   Overcast
1:53 PM 57.9 °F - 44.1 °F 60% 29.94 in 10.0 mi ENE 10.4 mph - N/A   Overcast
2:03 PM 57.2 °F - 44.6 °F 63% 29.98 in 10.0 mi ENE 9.2 mph - N/A   Overcast
2:53 PM 59.0 °F - 45.0 °F 60% 29.95 in 10.0 mi Variable 5.8 mph 17.3 mph N/A   Overcast
3:53 PM 61.0 °F - 46.0 °F 58% 29.94 in 10.0 mi ENE 12.7 mph 19.6 mph N/A   Mostly Cloudy
4:53 PM 59.0 °F - 46.0 °F 62% 29.94 in 10.0 mi ENE 17.3 mph 23.0 mph N/A   Mostly Cloudy
5:53 PM 57.0 °F - 45.0 °F 64% 29.95 in 10.0 mi ENE 16.1 mph - N/A   Clear
6:53 PM 55.9 °F - 44.1 °F 64% 29.95 in 10.0 mi ENE 15.0 mph - N/A   Clear
7:53 PM 54.0 °F - 44.1 °F 69% 29.97 in 10.0 mi East 16.1 mph - N/A   Mostly Cloudy
8:53 PM 52.0 °F - 44.1 °F 74% 29.99 in 10.0 mi SE 11.5 mph - N/A   Overcast
9:53 PM 50.0 °F - 42.1 °F 74% 30.02 in 10.0 mi SSE 18.4 mph - N/A   Clear
10:53 PM 48.0 °F - 41.0 °F 77% 30.02 in 10.0 mi SE 17.3 mph 24.2 mph N/A   Clear
11:53 PM 48.0 °F - 41.0 °F 77% 30.02 in 10.0 mi SE 21.9 mph 29.9 mph N/A   Clear